• In Deutschland
  • Länderverzeichnis
  • Für 7 Tage
  • Wassertemperatur
  • Satellitenkarten
  • Wetterkarte
  • Widgets
  • user-avatar
    Anmelden

    Stündliche Wetter Bad Brückenau

    Heute, 22 Februar, Donnerstag

    Zeit Temperatur Niederschläge Wind Luftdruck Luftfeuchtigkeit
    00:00 -7°C° 0 mm 4 m/S 718 mmHg 73%
    01:00 -6°C° 0 mm 3 m/S 719 mmHg 78%
    02:00 -6°C° 0 mm 3 m/S 718 mmHg 76%
    03:00 -7°C° 0 mm 4 m/S 718 mmHg 75%
    04:00 -7°C° 0 mm 4 m/S 718 mmHg 73%
    05:00 -7°C° 0 mm 4 m/S 718 mmHg 71%
    06:00 -8°C° 0 mm 4 m/S 718 mmHg 69%
    07:00 -8°C° 0 mm 4 m/S 718 mmHg 66%
    08:00 -7°C° 0 mm 5 m/S 718 mmHg 62%
    09:00 -6°C° 0 mm 6 m/S 718 mmHg 58%
    10:00 -5°C° 0 mm 6 m/S 718 mmHg 54%
    11:00 -5°C° 0 mm 6 m/S 718 mmHg 51%
    12:00 -4°C° 0 mm 6 m/S 718 mmHg 49%
    13:00 -3°C° 0 mm 6 m/S 718 mmHg 47%
    14:00 -3°C° 0 mm 6 m/S 718 mmHg 47%
    15:00 -4°C° 0 mm 6 m/S 717 mmHg 47%
    16:00 -4°C° 0 mm 6 m/S 717 mmHg 48%
    17:00 -5°C° 0 mm 6 m/S 717 mmHg 52%
    18:00 -6°C° 0 mm 5 m/S 717 mmHg 56%
    19:00 -7°C° 0 mm 5 m/S 717 mmHg 60%
    20:00 -7°C° 0 mm 5 m/S 717 mmHg 61%
    21:00 -7°C° 0 mm 5 m/S 717 mmHg 61%
    22:00 -7°C° 0 mm 5 m/S 717 mmHg 62%
    23:00 -8°C° 0 mm 5 m/S 717 mmHg 63%

    Morgen, 23 Februar, Freitag

    Zeit Temperatur Niederschläge Wind Luftdruck Luftfeuchtigkeit
    00:00 -8°C° 0 mm 5 m/S 717 mmHg 63%
    01:00 -8°C° 0 mm 5 m/S 717 mmHg 64%
    02:00 -8°C° 0 mm 5 m/S 717 mmHg 64%
    03:00 -8°C° 0 mm 5 m/S 717 mmHg 64%
    04:00 -10°C° 0 mm 5 m/S 717 mmHg 64%
    05:00 -10°C° 0 mm 5 m/S 717 mmHg 65%
    06:00 -10°C° 0 mm 5 m/S 717 mmHg 65%
    07:00 -10°C° 0 mm 5 m/S 717 mmHg 65%
    08:00 -8°C° 0 mm 5 m/S 717 mmHg 60%
    09:00 -8°C° 0 mm 5 m/S 717 mmHg 55%
    10:00 -8°C° 0 mm 6 m/S 717 mmHg 50%
    11:00 -6°C° 0 mm 6 m/S 717 mmHg 46%
    12:00 -5°C° 0 mm 6 m/S 717 mmHg 42%
    13:00 -4°C° 0 mm 6 m/S 717 mmHg 38%
    14:00 -4°C° 0 mm 6 m/S 717 mmHg 38%
    15:00 -4°C° 0 mm 6 m/S 717 mmHg 38%
    16:00 -4°C° 0 mm 6 m/S 717 mmHg 39%
    17:00 -5°C° 0 mm 6 m/S 717 mmHg 43%
    18:00 -6°C° 0 mm 6 m/S 717 mmHg 46%
    19:00 -7°C° 0 mm 5 m/S 717 mmHg 50%
    20:00 -7°C° 0 mm 5 m/S 717 mmHg 51%
    21:00 -7°C° 0 mm 5 m/S 717 mmHg 53%
    22:00 -8°C° 0 mm 5 m/S 717 mmHg 54%
    23:00 -8°C° 0 mm 5 m/S 717 mmHg 55%

    übermorgen, 24 Februar, Samstag

    Zeit Temperatur Niederschläge Wind Luftdruck Luftfeuchtigkeit
    00:00 -8°C° 0 mm 5 m/S 717 mmHg 55%
    01:00 -8°C° 0 mm 5 m/S 717 mmHg 56%
    02:00 -8°C° 0 mm 5 m/S 717 mmHg 55%
    03:00 -10°C° 0 mm 5 m/S 717 mmHg 55%
    04:00 -10°C° 0 mm 5 m/S 717 mmHg 55%
    05:00 -10°C° 0 mm 5 m/S 717 mmHg 53%
    06:00 -10°C° 0 mm 5 m/S 717 mmHg 52%
    07:00 -10°C° 0 mm 5 m/S 718 mmHg 50%
    08:00 -9°C° 0 mm 6 m/S 718 mmHg 45%
    09:00 -8°C° 0 mm 6 m/S 718 mmHg 40%
    10:00 -7°C° 0 mm 7 m/S 719 mmHg 34%
    11:00 -6°C° 0 mm 7 m/S 719 mmHg 34%
    12:00 -4°C° 0 mm 7 m/S 719 mmHg 34%
    13:00 -3°C° 0 mm 7 m/S 719 mmHg 35%
    14:00 -3°C° 0 mm 7 m/S 719 mmHg 38%
    15:00 -3°C° 0 mm 7 m/S 719 mmHg 41%
    16:00 -3°C° 0 mm 7 m/S 719 mmHg 44%
    17:00 -6°C° 0 mm 7 m/S 719 mmHg 46%
    18:00 -7°C° 0 mm 7 m/S 719 mmHg 48%
    19:00 -8°C° 0 mm 7 m/S 719 mmHg 50%
    20:00 -8°C° 0 mm 6 m/S 719 mmHg 49%
    21:00 -9°C° 0 mm 6 m/S 719 mmHg 49%
    22:00 -9°C° 0 mm 6 m/S 720 mmHg 48%
    23:00 -9°C° 0 mm 6 m/S 720 mmHg 49%

    25 Februar, Sonntag

    Zeit Temperatur Niederschläge Wind Luftdruck Luftfeuchtigkeit
    00:00 -10°C° 0 mm 6 m/S 720 mmHg 49%
    01:00 -10°C° 0 mm 6 m/S 720 mmHg 49%
    02:00 -10°C° 0 mm 6 m/S 720 mmHg 49%
    03:00 -11°C° 0 mm 6 m/S 720 mmHg 49%
    04:00 -11°C° 0 mm 6 m/S 720 mmHg 49%
    05:00 -11°C° 0 mm 6 m/S 720 mmHg 48%
    06:00 -11°C° 0 mm 6 m/S 720 mmHg 46%
    07:00 -12°C° 0 mm 6 m/S 720 mmHg 45%
    08:00 -11°C° 0 mm 6 m/S 721 mmHg 40%
    09:00 -11°C° 0 mm 6 m/S 721 mmHg 35%
    10:00 -11°C° 0 mm 7 m/S 721 mmHg 30%
    11:00 -9°C° 0 mm 6 m/S 721 mmHg 29%
    12:00 -9°C° 0 mm 6 m/S 721 mmHg 28%
    13:00 -8°C° 0 mm 6 m/S 721 mmHg 27%
    14:00 -8°C° 0 mm 6 m/S 720 mmHg 28%
    15:00 -8°C° 0 mm 6 m/S 720 mmHg 30%
    16:00 -8°C° 0 mm 6 m/S 720 mmHg 31%
    17:00 -9°C° 0 mm 6 m/S 720 mmHg 35%
    18:00 -10°C° 0 mm 6 m/S 720 mmHg 38%
    19:00 -11°C° 0 mm 6 m/S 720 mmHg 42%
    20:00 -11°C° 0 mm 6 m/S 720 mmHg 43%
    21:00 -11°C° 0 mm 6 m/S 720 mmHg 44%
    22:00 -12°C° 0 mm 6 m/S 720 mmHg 45%
    23:00 -12°C° 0 mm 5 m/S 720 mmHg 45%

    26 Februar, Montag

    Zeit Temperatur Niederschläge Wind Luftdruck Luftfeuchtigkeit
    00:00 -12°C° 0 mm 5 m/S 719 mmHg 46%
    01:00 -13°C° 0 mm 5 m/S 719 mmHg 47%
    02:00 -13°C° 0 mm 5 m/S 719 mmHg 47%
    03:00 -13°C° 0 mm 5 m/S 719 mmHg 47%
    04:00 -14°C° 0 mm 5 m/S 719 mmHg 48%
    05:00 -14°C° 0 mm 5 m/S 718 mmHg 48%
    06:00 -14°C° 0 mm 5 m/S 718 mmHg 49%
    07:00 -14°C° 0 mm 5 m/S 718 mmHg 50%
    08:00 -14°C° 0 mm 5 m/S 718 mmHg 47%
    09:00 -14°C° 0 mm 6 m/S 718 mmHg 45%
    10:00 -14°C° 0 mm 6 m/S 718 mmHg 42%
    11:00 -12°C° 0 mm 6 m/S 718 mmHg 39%
    12:00 -11°C° 0 mm 6 m/S 718 mmHg 37%
    13:00 -10°C° 0 mm 6 m/S 718 mmHg 34%
    14:00 -10°C° 0 mm 6 m/S 717 mmHg 34%
    15:00 -10°C° 0 mm 6 m/S 717 mmHg 34%
    16:00 -10°C° 0 mm 6 m/S 717 mmHg 34%
    17:00 -11°C° 0 mm 5 m/S 716 mmHg 37%
    18:00 -12°C° 0 mm 5 m/S 716 mmHg 39%
    19:00 -11°C° 0 mm 4 m/S 716 mmHg 42%
    20:00 -12°C° 0 mm 4 m/S 716 mmHg 43%
    21:00 -12°C° 0 mm 4 m/S 716 mmHg 45%
    22:00 -12°C° 0 mm 4 m/S 716 mmHg 46%
    23:00 -12°C° 0 mm 4 m/S 716 mmHg 47%

    27 Februar, Dienstag

    Zeit Temperatur Niederschläge Wind Luftdruck Luftfeuchtigkeit
    00:00 -14°C° 0 mm 4 m/S 715 mmHg 48%
    01:00 -14°C° 0 mm 4 m/S 715 mmHg 49%
    02:00 -14°C° 0 mm 4 m/S 715 mmHg 50%
    03:00 -15°C° 0 mm 4 m/S 715 mmHg 51%
    04:00 -14°C° 0 mm 3 m/S 714 mmHg 51%
    05:00 -14°C° 0 mm 3 m/S 714 mmHg 52%
    06:00 -14°C° 0 mm 3 m/S 714 mmHg 52%
    07:00 -14°C° 0 mm 3 m/S 714 mmHg 52%
    08:00 -14°C° 0 mm 3 m/S 714 mmHg 48%
    09:00 -14°C° 0 mm 4 m/S 715 mmHg 44%
    10:00 -12°C° 0 mm 4 m/S 715 mmHg 40%
    11:00 -11°C° 0 mm 4 m/S 715 mmHg 37%
    12:00 -10°C° 0 mm 4 m/S 715 mmHg 33%
    13:00 -9°C° 0 mm 4 m/S 715 mmHg 30%
    14:00 -9°C° 0 mm 4 m/S 715 mmHg 30%
    15:00 -9°C° 0 mm 4 m/S 715 mmHg 29%
    16:00 -9°C° 0 mm 4 m/S 715 mmHg 29%
    17:00 -9°C° 0 mm 3 m/S 715 mmHg 32%
    18:00 -9°C° 0 mm 3 m/S 715 mmHg 34%
    19:00 -10°C° 0 mm 3 m/S 715 mmHg 37%
    20:00 -10°C° 0 mm 3 m/S 715 mmHg 38%
    21:00 -12°C° 0 mm 3 m/S 716 mmHg 39%
    22:00 -12°C° 0 mm 3 m/S 716 mmHg 40%
    23:00 -12°C° 0 mm 3 m/S 716 mmHg 42%
    Mehr zeigen